Wind_Speed
54 51 47 48 46 47 47 49 51 56 53 57 54 52 46 42 45 46 49 51 53 54 54 55 56 62 60 56 50 53 59 59 63 63 63 64 66 70 69 66 70 72 63 60 58 58 60
57 53 48 50 51 50 49 53 56 46 51 42 37 35 35 38 39 41 40 39 41 44 47 51 54 54 55 56 48 51 56 61 62 62 65 67 66 68 70 67 69 67 64 59 58 58 63
62 60 62 59 54 53 57 60 53 49 45 32 32 33 31 31 34 33 33 37 40 45 50 53 52 54 48 45 51 51 55 56 61 65 66 66 67 71 70 68 67 66 69 61 56 59 62
67 73 64 64 70 77 74 59 44 37 29 28 29 31 33 34 30 32 36 40 44 50 54 58 59 61 54 56 59 61 63 66 66 69 70 69 70 72 76 72 71 71 73 67 56 62 61
79 79 75 70 59 46 32 37 29 26 27 25 23 24 27 31 33 36 42 46 52 56 60 63 66 70 61 66 68 68 72 73 75 77 77 80 77 76 75 73 70 71 78 73 60 60 63
68 43 37 37 31 31 29 27 28 24 25 22 27 33 37 41 44 47 51 54 60 62 65 69 71 72 68 68 65 69 72 73 76 74 77 79 80 82 83 81 81 71 71 69 66 62 66
40 32 28 37 41 28 26 24 13 18 23 29 35 40 43 48 52 54 57 61 64 66 65 65 69 70 69 73 69 73 73 76 79 83 82 79 81 84 83 84 82 73 72 72 67 62 67
29 30 33 34 24 16 14 17 21 30 33 37 43 47 49 53 56 60 59 59 60 63 62 64 69 74 74 78 75 78 81 88 86 89 87 88 94 86 80 78 81 85 83 82 76 60 66
33 28 30 37 25 18 19 26 33 36 38 43 47 52 55 53 53 56 57 59 62 63 65 63 70 80 80 83 84 82 84 86 89 91 89 94 92 75 68 71 66 72 79 81 79 67 71
27 27 30 23 19 23 33 37 39 41 44 46 48 46 48 51 54 56 57 60 61 64 67 74 78 80 82 86 83 78 79 81 79 79 77 84 84 77 69 64 68 67 64 67 75 73 74
27 27 22 20 26 36 39 38 39 42 40 39 42 45 48 50 52 55 57 60 63 66 69 72 77 77 76 78 79 73 65 63 61 61 58 70 71 76 81 84 70 75 64 72 66 63 68
35 23 19 29 36 37 35 37 36 34 37 41 43 46 47 49 51 55 59 63 65 67 75 68 69 70 66 55 61 56 52 46 38 30 32 45 39 62 71 73 63 60 66 70 62 72 65
20 25 34 35 32 33 33 33 31 34 37 40 42 45 48 50 52 55 59 62 65 67 68 68 67 61 55 51 47 47 43 43 49 43 42 25 29 42 50 65 60 64 50 67 69 49 67
31 34 33 30 28 30 31 30 32 36 38 41 43 45 46 49 52 55 57 58 61 64 64 65 59 50 36 32 34 38 36 38 41 24 30 29 13 25 36 56 62 59 59 63 61 68 59
33 29 27 26 27 28 29 30 31 34 37 39 41 42 46 49 50 51 54 58 61 63 61 55 40 37 30 25 36 35 30 35 29 29 11 26 30 25 10 12 51 56 64 51 51 58 56
27 26 26 26 26 26 27 29 31 33 34 36 39 41 43 47 49 51 55 60 59 55 49 38 33 32 33 28 31 26 30 28 31 28 28 16 30 32 24 14 10 50 57 52 53 53 37
24 25 23 23 22 24 27 30 31 31 32 36 36 37 41 44 47 51 55 57 53 42 37 31 31 31 32 36 27 23 17 17 10 13 15 28 24 17 26 16 21 6 19 55 40 45 60
21 21 20 21 22 23 26 27 30 32 29 32 35 38 41 44 47 53 56 57 52 38 29 28 26 28 29 25 26 19 15 10 13 10 16 16 24 28 27 20 3 9 12 16 53 47 27
19 18 20 21 22 24 26 26 26 28 28 29 35 37 40 44 50 55 56 50 44 35 27 25 23 22 23 21 16 18 15 11 8 12 7 9 10 16 17 18 11 9 12 3 12 39 31
20 19 20 20 23 24 24 24 23 28 27 29 34 36 42 47 52 55 54 44 35 28 25 24 23 22 24 20 21 19 16 12 7 4 9 4 2 7 6 13 19 16 17 7 11 12 12
19 20 19 20 22 22 21 22 21 27 26 29 33 38 44 47 51 52 52 45 34 31 20 21 17 22 22 20 19 15 9 9 12 4 6 10 9 9 1 5 6 6 10 13 17 12 15
19 17 18 18 19 19 19 17 19 24 24 28 34 38 42 46 49 50 48 40 34 23 22 20 25 24 18 21 19 13 6 7 7 15 16 5 6 7 9 1 3 2 6 5 10 16 23
16 17 17 16 17 18 18 15 18 22 25 30 33 36 40 44 47 49 45 39 34 24 21 23 26 23 14 15 13 14 12 11 10 8 13 15 17 15 7 6 5 3 5 5 6 8 7
14 13 13 16 17 19 16 12 16 21 24 27 30 34 37 41 45 46 41 34 31 22 17 19 24 25 17 16 11 10 15 14 9 11 10 13 13 15 16 14 11 5 11 6 5 3 7
11 12 15 16 19 18 12 12 17 20 21 23 28 32 35 38 42 45 42 30 25 23 16 20 21 25 23 16 6 6 8 11 10 12 14 14 18 14 7 5 5 11 12 11 9 8 18
11 13 17 19 17 11 9 12 16 17 18 21 25 29 32 36 39 43 41 32 23 16 14 18 20 20 21 16 12 12 8 2 6 14 15 8 5 5 1 9 14 10 10 14 14 13 15
13 16 16 14 11 9 8 11 13 15 18 20 24 27 30 34 38 40 40 33 24 19 10 9 14 12 15 15 16 19 17 13 9 5 2 2 3 1 4 3 10 15 5 12 14 15 12
13 12 12 11 9 8 7 9 11 13 16 19 22 25 27 31 34 37 37 31 23 18 15 10 11 12 13 13 16 21 24 25 21 9 8 7 3 6 7 8 1 7 5 3 8 9 11
12 12 10 8 7 6 6 8 10 12 15 18 20 23 26 28 31 33 34 28 20 14 11 8 10 10 14 14 13 20 19 17 20 12 5 5 5 8 7 5 7 4 5 7 8 14 15
Wind_Direction
239 238 241 244 245 249 248 258 267 284 273 275 273 274 283 277 274 270 262 267 265 269 267 269 272 269 272 275 282 277 276 273 270 270 271 270 270 270 269 266 265 268 271 273 273 271 270
235 239 241 245 245 247 247 258 279 285 272 284 285 276 270 272 268 269 271 272 273 272 271 272 272 271 275 281 283 276 272 270 272 273 272 270 268 266 265 266 267 271 268 269 269 269 270
234 235 242 240 245 247 254 256 277 275 273 274 272 267 273 275 271 272 278 281 277 274 271 270 271 272 282 291 277 271 270 265 261 262 265 267 269 270 268 264 262 263 263 266 268 267 270
234 236 241 242 246 248 256 267 261 257 255 264 265 269 272 277 271 278 278 278 275 272 274 274 275 276 289 284 275 272 267 267 266 268 268 263 262 263 262 262 262 262 260 262 265 264 269
236 242 241 244 261 256 258 258 248 252 270 270 268 269 274 277 276 275 277 278 275 275 276 277 277 275 284 279 277 273 271 271 270 269 270 270 265 263 260 259 260 259 260 259 257 261 260
247 245 242 251 252 246 267 262 252 266 274 267 259 264 265 264 267 270 273 275 277 279 279 281 281 280 281 280 279 275 270 270 267 265 264 263 263 264 265 257 254 258 264 263 262 261 264
242 240 236 238 252 259 266 258 244 264 261 258 262 266 271 270 272 274 277 279 281 281 281 282 284 282 283 279 275 273 274 271 268 266 266 264 261 263 269 266 265 261 263 263 257 263 263
230 228 232 236 253 223 229 236 244 249 250 256 264 270 273 276 279 280 283 283 283 283 281 285 288 286 283 281 282 277 273 272 271 270 266 263 261 264 260 260 259 259 257 257 262 256 264
219 229 232 237 224 221 238 241 249 256 260 265 271 277 281 282 285 286 287 285 286 288 291 290 285 285 284 285 283 278 274 271 269 266 265 263 263 258 256 254 257 257 258 256 258 260 263
246 234 230 216 208 233 241 246 253 262 267 274 279 283 286 287 287 288 292 294 293 291 292 292 290 289 290 289 285 281 278 276 270 269 266 262 262 248 243 242 245 249 253 261 257 259 260
228 214 195 218 235 240 247 255 264 271 277 276 278 280 283 284 290 295 294 292 293 294 293 295 294 293 292 290 287 282 277 273 271 269 266 263 258 254 241 235 241 239 247 253 252 249 250
205 185 212 230 239 249 260 268 273 274 279 282 285 288 292 295 294 293 294 295 295 295 298 298 296 297 292 285 283 281 277 262 257 258 259 269 256 247 244 238 235 241 240 251 247 248 247
192 208 226 241 255 263 269 271 274 279 281 286 292 294 294 294 295 296 297 298 300 301 303 304 303 301 295 293 284 273 266 252 254 274 266 274 267 261 254 241 230 227 241 236 248 253 254
215 229 242 252 258 265 266 270 274 279 286 290 291 293 295 294 296 299 302 305 308 310 312 312 311 308 305 301 279 272 267 252 251 276 282 266 245 258 231 238 226 223 231 236 241 244 245
231 243 252 258 258 258 264 270 278 284 287 290 292 292 291 296 302 307 309 314 318 320 320 319 313 305 300 298 305 285 269 260 255 248 304 255 249 270 184 238 238 232 231 223 253 244 252
246 249 243 242 249 261 270 277 280 283 288 290 289 294 302 306 309 314 322 326 328 327 325 319 315 305 304 304 310 303 276 268 264 258 263 276 267 263 254 294 227 232 231 231 239 234 255
235 230 237 248 258 270 278 281 284 286 290 289 295 306 307 311 319 328 331 333 337 331 323 317 314 310 306 304 308 312 296 279 272 287 297 270 271 269 280 310 311 202 201 226 231 239 242
225 237 248 257 263 270 277 281 286 289 289 298 308 310 314 324 335 338 339 339 340 336 328 326 318 310 311 304 304 308 298 292 281 273 308 313 303 286 273 285 97 47 308 203 220 235 232
232 239 251 262 273 277 280 283 287 290 298 307 308 317 329 338 345 345 344 345 342 332 326 324 318 322 316 307 293 330 295 264 257 248 339 28 338 297 282 267 262 260 104 162 196 215 225
225 237 252 264 273 277 281 287 290 292 304 313 317 333 344 351 348 346 346 345 345 335 321 316 316 325 318 299 296 317 308 281 244 297 264 166 165 63 9 334 305 293 265 254 191 160 203
234 242 257 265 271 280 284 285 288 294 310 322 336 350 355 352 349 347 346 345 347 341 342 323 313 306 315 297 287 295 320 323 236 218 154 176 217 247 57 110 19 24 317 298 271 225 166
240 254 259 264 271 279 279 279 288 303 321 339 353 358 354 352 350 347 348 348 351 350 335 335 326 323 299 317 291 284 291 339 327 259 261 195 174 195 190 233 240 264 232 246 304 305 248
245 255 258 267 274 275 269 275 302 324 343 352 355 357 355 354 351 349 350 349 354 359 346 340 347 345 309 318 310 276 284 316 355 271 271 283 290 290 278 224 247 284 245 245 243 237 267
240 255 263 266 270 265 265 295 330 341 354 355 354 357 356 354 354 350 352 353 351 356 357 358 1 358 330 315 318 278 301 301 287 344 305 307 311 322 306 285 249 169 294 285 268 211 181
245 252 253 259 258 259 281 340 342 351 356 356 356 358 357 357 357 353 353 357 355 344 346 355 7 11 9 10 33 327 322 306 307 305 311 308 315 324 339 306 261 260 256 268 248 264 266
237 245 249 251 258 280 326 343 346 350 355 357 356 357 358 359 358 357 354 355 4 356 334 359 14 17 25 37 28 36 36 51 258 276 284 280 303 307 20 161 153 190 222 225 253 261 263
237 244 251 267 282 301 330 344 342 348 354 357 354 358 0 1 1 0 356 357 3 12 13 19 16 24 25 30 58 48 49 44 42 21 8 243 176 89 32 69 200 188 180 204 216 215 202
250 259 265 273 285 306 327 334 338 349 355 355 354 358 1 3 3 3 360 357 5 16 23 19 25 26 12 17 29 51 74 61 54 41 51 52 8 332 316 351 2 327 270 193 231 263 249
254 253 259 271 280 289 313 326 337 352 351 354 355 357 1 5 3 7 4 3 12 27 26 45 48 27 19 27 24 28 45 35 43 75 79 42 27 352 4 352 352 0 260 268 274 231 237
Height
5732 5736 5738 5743 5745 5748 5751 5752 5755 5754 5755 5758 5758 5757 5757 5759 5759 5759 5760 5759 5758 5759 5759 5759 5758 5759 5760 5758 5767 5766 5758 5759 5757 5758 5759 5757 5754 5747 5749 5754 5746 5738 5750 5753 5756 5755 5752
5720 5726 5729 5733 5736 5740 5742 5745 5746 5746 5745 5747 5748 5747 5747 5749 5749 5751 5750 5750 5749 5747 5746 5745 5744 5744 5747 5747 5759 5751 5748 5742 5746 5746 5742 5739 5738 5731 5730 5736 5734 5735 5734 5737 5738 5740 5739
5709 5714 5717 5722 5728 5731 5733 5736 5737 5739 5736 5738 5738 5741 5740 5740 5741 5739 5739 5740 5738 5736 5733 5731 5730 5729 5736 5743 5734 5732 5730 5733 5728 5725 5724 5722 5719 5712 5715 5719 5718 5718 5714 5724 5724 5723 5725
5699 5700 5708 5713 5717 5718 5723 5727 5728 5728 5727 5728 5731 5732 5733 5732 5730 5729 5730 5729 5726 5722 5720 5719 5716 5715 5724 5725 5720 5718 5714 5713 5715 5712 5707 5705 5702 5696 5693 5695 5699 5698 5695 5701 5713 5711 5713
5687 5693 5700 5703 5710 5715 5715 5716 5716 5719 5719 5719 5721 5722 5722 5722 5720 5720 5719 5717 5713 5710 5708 5705 5702 5698 5710 5708 5706 5703 5701 5699 5692 5691 5691 5686 5682 5679 5679 5680 5678 5681 5671 5679 5693 5697 5695
5683 5690 5692 5699 5703 5705 5705 5705 5707 5709 5711 5711 5712 5711 5709 5708 5707 5707 5706 5704 5701 5698 5695 5690 5686 5683 5687 5686 5689 5678 5672 5672 5662 5666 5661 5660 5658 5656 5657 5659 5653 5665 5664 5670 5678 5687 5683
5675 5679 5683 5690 5695 5697 5696 5698 5700 5702 5701 5702 5702 5701 5699 5696 5696 5695 5694 5692 5689 5686 5682 5675 5667 5664 5665 5659 5665 5655 5654 5646 5641 5632 5636 5640 5632 5630 5639 5644 5649 5655 5650 5649 5660 5668 5662
5664 5671 5675 5682 5686 5688 5689 5691 5692 5691 5690 5691 5691 5690 5689 5687 5684 5682 5679 5676 5673 5669 5667 5661 5651 5641 5639 5633 5640 5633 5620 5611 5614 5609 5615 5612 5598 5619 5621 5623 5622 5627 5629 5632 5645 5655 5645
5658 5665 5670 5675 5678 5681 5682 5682 5683 5683 5683 5683 5683 5680 5678 5674 5672 5669 5666 5661 5658 5653 5647 5647 5633 5615 5615 5611 5605 5605 5598 5589 5580 5578 5583 5575 5590 5594 5596 5602 5601 5606 5608 5617 5625 5640 5633
5652 5659 5664 5668 5672 5673 5673 5674 5675 5674 5674 5673 5671 5668 5665 5663 5661 5656 5651 5646 5641 5637 5631 5623 5613 5603 5593 5581 5578 5569 5563 5562 5561 5548 5558 5542 5565 5565 5570 5576 5585 5588 5595 5604 5608 5616 5612
5647 5653 5659 5662 5663 5663 5665 5666 5666 5666 5664 5660 5658 5655 5652 5647 5644 5639 5635 5631 5625 5620 5611 5598 5585 5576 5575 5555 5544 5552 5539 5537 5532 5532 5526 5524 5533 5538 5539 5551 5567 5567 5584 5584 5593 5593 5592
5642 5646 5651 5652 5653 5657 5658 5660 5658 5656 5655 5654 5650 5647 5642 5636 5632 5627 5621 5613 5609 5601 5590 5581 5570 5558 5547 5537 5521 5516 5522 5517 5521 5518 5512 5508 5518 5511 5517 5531 5542 5558 5564 5561 5574 5577 5573
5635 5638 5641 5644 5647 5651 5651 5650 5648 5647 5645 5642 5638 5634 5631 5627 5621 5615 5607 5598 5591 5581 5570 5558 5546 5534 5522 5513 5509 5501 5503 5509 5508 5501 5499 5502 5503 5500 5505 5510 5525 5533 5539 5547 5550 5556 5559
5628 5631 5634 5637 5640 5640 5640 5639 5639 5638 5634 5632 5629 5626 5621 5616 5609 5601 5591 5583 5572 5557 5542 5531 5517 5513 5505 5499 5496 5490 5490 5494 5496 5496 5492 5495 5494 5493 5489 5495 5503 5514 5527 5532 5536 5545 5553
5622 5625 5628 5629 5631 5632 5633 5632 5630 5628 5625 5624 5621 5616 5612 5606 5596 5587 5579 5564 5551 5536 5521 5508 5504 5499 5500 5495 5485 5481 5481 5483 5486 5489 5487 5485 5486 5483 5484 5488 5493 5506 5504 5524 5527 5537 5539
5615 5618 5620 5621 5623 5625 5625 5624 5622 5620 5617 5616 5612 5607 5600 5594 5585 5574 5560 5547 5531 5517 5505 5498 5494 5492 5487 5486 5482 5476 5475 5476 5477 5480 5480 5481 5477 5479 5480 5482 5483 5490 5501 5512 5513 5524 5525
5609 5612 5615 5617 5618 5619 5619 5619 5617 5613 5611 5610 5603 5596 5590 5583 5571 5556 5543 5530 5516 5506 5498 5494 5490 5485 5483 5477 5477 5472 5471 5471 5474 5475 5476 5475 5475 5481 5477 5482 5481 5484 5487 5496 5503 5511 5514
5604 5607 5610 5612 5612 5612 5612 5611 5611 5610 5604 5600 5596 5590 5582 5570 5556 5540 5526 5515 5506 5499 5494 5490 5486 5481 5476 5473 5472 5468 5467 5466 5468 5472 5472 5473 5473 5474 5477 5477 5480 5481 5480 5486 5496 5501 5502
5600 5603 5606 5609 5609 5608 5607 5604 5602 5602 5596 5592 5588 5578 5567 5555 5541 5528 5516 5506 5498 5494 5490 5486 5481 5477 5473 5470 5468 5465 5463 5464 5466 5468 5469 5471 5472 5470 5473 5475 5474 5477 5479 5485 5489 5492 5500
5594 5597 5601 5602 5603 5602 5600 5597 5596 5596 5591 5586 5579 5565 5552 5539 5532 5523 5511 5503 5497 5491 5485 5479 5476 5472 5469 5467 5465 5463 5461 5462 5463 5465 5467 5467 5467 5467 5468 5469 5471 5475 5480 5481 5486 5491 5494
5590 5592 5594 5596 5597 5594 5592 5592 5592 5591 5584 5577 5564 5550 5540 5535 5527 5517 5507 5498 5491 5486 5481 5475 5473 5468 5465 5462 5462 5462 5460 5460 5460 5461 5463 5464 5466 5467 5469 5469 5471 5473 5477 5478 5482 5488 5488
5587 5587 5588 5589 5590 5588 5587 5588 5588 5582 5572 5563 5551 5544 5539 5533 5524 5515 5504 5495 5489 5483 5476 5474 5468 5464 5460 5459 5458 5459 5459 5458 5458 5459 5460 5462 5464 5463 5466 5467 5469 5471 5472 5473 5476 5479 5483
5580 5583 5583 5584 5582 5582 5584 5583 5578 5568 5558 5549 5545 5542 5537 5530 5522 5512 5502 5492 5485 5480 5475 5470 5465 5460 5457 5457 5455 5455 5456 5457 5458 5458 5458 5460 5461 5463 5464 5467 5469 5471 5469 5471 5473 5473 5478
5574 5576 5575 5577 5578 5582 5580 5574 5563 5557 5551 5548 5545 5540 5535 5529 5520 5510 5499 5490 5483 5479 5475 5472 5466 5460 5456 5452 5452 5453 5455 5457 5458 5457 5457 5457 5457 5458 5461 5466 5468 5468 5466 5470 5470 5476 5478
5568 5568 5571 5573 5576 5575 5569 5559 5555 5551 5550 5547 5542 5538 5533 5527 5518 5508 5497 5490 5484 5477 5475 5473 5468 5462 5456 5450 5451 5454 5454 5456 5456 5456 5456 5455 5454 5454 5454 5456 5459 5463 5466 5469 5467 5470 5474
5561 5563 5567 5570 5568 5561 5555 5554 5552 5550 5548 5544 5540 5536 5531 5525 5519 5508 5497 5490 5484 5479 5475 5473 5469 5465 5461 5457 5455 5454 5453 5453 5454 5454 5455 5455 5455 5455 5454 5456 5458 5462 5464 5463 5462 5468 5471
5555 5560 5561 5558 5555 5553 5552 5550 5550 5548 5545 5542 5538 5534 5529 5523 5516 5507 5498 5489 5483 5478 5476 5474 5472 5469 5467 5464 5461 5458 5456 5455 5455 5455 5455 5455 5456 5457 5457 5458 5459 5459 5458 5461 5465 5468 5468
5550 5550 5551 5551 5550 5549 5548 5548 5547 5545 5542 5540 5536 5532 5529 5522 5515 5507 5498 5489 5482 5479 5477 5476 5474 5472 5471 5468 5464 5461 5459 5459 5457 5456 5456 5457 5458 5458 5458 5458 5459 5457 5458 5461 5463 5462 5463
5543 5545 5547 5547 5546 5546 5545 5545 5544 5542 5540 5537 5534 5530 5526 5521 5515 5508 5499 5491 5484 5481 5479 5478 5476 5474 5472 5471 5469 5467 5465 5462 5461 5459 5459 5459 5458 5458 5458 5458 5457 5457 5458 5458 5459 5460 5459